User: anonymous
Location: Unspecified
(0.0000°N, 0.0000°E)
Time: 15:09:10
(UTC+02:00)
Language:

YAOGAN 3 - Orbit

View from above orbital plane
View from above orbital plane
View from above satellite
View from above satellite

Ground track
Ground track

The orbit data is extracted from the following two-line orbital elements,

1 32289U 07055A   14211.18255197  .00000084  00000-0  17292-4 0  4350
2 32289 097.9397 202.7973 0001639 103.2202 256.9196 14.81920607362893
Epoch (UTC): 30 July 2014 04:22:52
Eccentricity: 0.0001639
inclination: 97.9397°
perigee height: 622 km
apogee height: 624 km
right ascension of ascending node: 202.7973°
argument of perigee: 103.2202°
revolutions per day: 14.81920607
mean anomaly at epoch: 256.9196°
orbit number at epoch: 36289

The dashed part of the orbit path shows where the satellite is in the earth's shadow,  

DLR